Lapse_Rate
5.5 5.3 5.8 6.3 6.0 6.0 5.8 5.5 5.3 5.2 5.5 6.2 7.3 6.8 6.6 6.6 7.1 7.2 7.2 7.1 7.6 7.5 7.3 7.3 7.0 6.8 6.5 6.1 6.1 6.1 6.3 6.5 6.7 6.6 6.2 6.5 6.6 6.5 6.4 6.4 6.6 7.0 6.7 6.2
6.0 5.2 5.7 5.5 6.5 5.9 5.2 5.0 5.1 5.4 5.8 6.0 6.3 7.0 7.1 7.5 7.2 7.2 7.5 8.0 7.9 7.8 7.6 7.0 6.5 6.1 6.2 6.4 6.1 6.0 6.1 6.4 6.1 6.4 6.6 6.8 6.8 6.4 6.3 6.1 6.1 6.1 6.0 5.8
5.1 5.1 4.6 4.8 5.0 5.3 5.3 5.6 5.6 5.4 5.6 6.1 6.4 6.4 6.9 6.9 6.9 6.9 6.8 6.8 7.1 7.2 7.0 6.4 6.3 6.4 6.5 6.5 6.8 6.6 6.5 6.0 6.2 5.8 6.3 6.4 6.7 6.3 6.0 5.9 5.6 5.8 5.6 5.8
4.5 5.1 4.8 5.3 5.4 5.1 5.1 4.9 5.0 5.0 6.0 6.4 6.5 6.4 6.2 6.5 6.8 6.8 6.7 6.6 6.5 6.5 6.6 6.6 6.5 6.2 6.2 6.2 6.3 6.4 6.6 6.8 6.5 6.3 6.1 6.4 6.8 6.5 6.8 6.6 6.3 6.0 5.8 5.9
4.6 4.8 4.6 4.7 5.2 5.7 5.9 5.9 6.2 6.0 6.3 6.2 6.2 6.2 6.3 6.5 6.7 6.6 6.5 6.2 6.1 6.4 6.6 6.5 6.5 6.6 6.6 6.4 6.4 6.0 6.7 6.6 6.6 6.6 6.5 6.6 6.6 6.9 6.4 6.4 6.3 6.1 6.1 6.0
4.4 4.4 4.3 5.5 5.9 6.2 6.0 5.7 6.0 6.4 6.6 6.8 6.6 6.4 6.5 6.3 6.3 6.3 6.3 6.4 6.5 6.2 6.4 6.5 6.9 6.8 6.9 6.6 6.4 6.6 6.5 6.7 7.1 7.3 7.1 6.8 6.7 6.5 6.6 6.7 6.7 6.1 6.2 5.9
4.7 4.7 5.1 5.3 5.4 5.8 5.4 6.0 6.5 6.3 6.2 6.3 6.5 6.5 6.6 6.8 6.8 6.6 6.5 6.6 6.7 6.8 6.6 6.4 6.5 6.5 6.4 6.5 6.6 6.6 6.7 6.8 7.2 7.4 7.1 6.8 6.4 6.4 7.1 6.8 6.9 7.0 6.5 5.9
4.7 4.8 4.9 5.7 5.4 5.6 6.3 6.6 6.5 6.5 6.4 6.6 6.7 6.8 7.0 6.9 6.6 6.8 6.8 6.9 6.6 6.2 6.2 6.4 6.4 6.2 6.1 6.2 6.3 6.1 6.0 6.2 6.2 6.9 6.8 6.9 6.6 6.2 6.3 6.9 7.1 6.6 6.3 5.9
5.7 5.7 6.1 6.2 6.1 6.2 6.1 5.9 5.9 6.0 6.2 6.5 6.8 6.8 6.7 6.6 6.7 6.9 6.7 6.5 6.4 6.3 6.4 6.4 6.4 6.5 6.3 6.3 6.2 6.5 6.3 6.2 6.0 6.1 6.8 6.8 6.9 6.8 6.4 7.2 7.2 6.8 6.3 5.7
5.8 5.7 6.1 6.1 6.0 5.8 5.7 5.6 5.8 6.0 6.2 6.3 6.2 6.1 6.5 6.7 6.6 6.5 6.4 6.3 6.4 6.7 6.7 6.7 6.7 6.7 6.7 6.8 7.0 7.0 7.1 7.5 7.4 6.6 6.2 6.4 6.3 6.5 7.2 7.1 7.0 6.9 6.4 6.9
5.9 5.7 5.6 5.5 5.8 6.1 6.1 6.2 6.2 6.1 6.2 6.4 6.7 6.9 6.8 6.7 6.8 6.6 6.6 6.8 6.9 6.9 7.0 7.2 7.6 8.2 8.1 7.9 7.7 7.6 7.6 7.8 8.0 7.7 7.4 6.8 6.6 6.1 6.4 6.9 7.0 6.9 6.5 6.5
6.0 6.3 6.4 6.3 6.2 6.3 6.4 6.6 6.6 6.7 6.7 6.6 6.5 6.6 6.9 6.9 6.6 6.6 7.0 7.0 7.0 7.0 7.8 8.1 8.1 7.9 7.6 7.5 7.7 7.6 7.7 8.2 8.3 8.2 7.6 7.3 7.8 6.8 6.2 6.2 6.7 6.5 6.8 6.5
6.3 6.4 6.2 6.4 6.5 6.7 6.7 6.8 6.8 6.6 6.6 6.7 6.9 7.2 7.5 7.0 6.9 7.0 6.9 6.9 7.7 8.0 7.8 7.8 7.6 7.4 7.3 7.2 7.2 7.3 7.5 7.8 7.7 7.7 7.8 7.1 7.7 7.9 6.6 6.6 6.1 6.7 6.6 6.7
6.9 7.0 7.0 6.9 7.1 7.2 7.1 6.9 6.9 6.9 6.9 6.9 7.0 6.9 6.9 7.0 7.1 7.4 7.7 7.8 7.8 7.6 7.7 7.6 7.6 7.4 7.1 7.0 7.1 7.2 7.2 7.4 7.9 7.8 7.6 7.3 7.6 7.7 7.1 7.1 6.3 6.2 6.5 6.6
7.3 7.3 7.3 7.2 7.2 7.1 7.0 6.9 7.1 7.0 7.1 7.1 6.9 6.8 7.1 7.6 8.1 7.9 7.6 7.4 7.5 7.5 7.5 7.5 7.4 7.3 7.1 7.1 7.3 7.1 7.1 7.1 7.2 7.4 7.5 7.2 7.3 7.7 7.2 6.9 6.6 5.7 6.4 6.2
7.4 7.4 7.5 7.4 7.3 7.4 7.2 7.2 7.2 7.5 7.4 7.1 7.0 7.3 7.8 8.2 8.0 7.6 7.4 7.4 7.5 7.6 7.5 7.4 7.3 7.2 7.2 7.1 7.0 6.7 6.8 6.9 7.0 7.1 7.1 7.2 7.3 7.3 7.1 6.9 6.4 6.3 6.4 6.4
8.0 7.9 7.8 7.8 7.5 7.4 7.5 7.5 7.5 7.5 7.4 7.5 7.8 8.0 8.1 8.0 7.9 7.7 7.6 7.6 7.6 7.6 7.5 7.5 7.3 7.1 7.1 7.0 6.7 6.3 6.4 6.6 6.4 6.7 7.0 7.2 7.4 7.4 7.0 6.8 6.1 6.3 6.1 6.4
8.0 8.0 7.9 7.8 7.8 7.8 7.8 7.8 7.8 7.9 8.1 8.1 8.0 8.0 8.1 8.0 7.8 7.9 7.8 7.9 7.8 7.8 7.6 7.4 7.3 7.3 7.1 6.9 6.6 6.6 6.4 6.5 6.6 6.3 6.7 7.1 7.4 7.6 7.2 6.6 6.2 5.9 6.0 6.2
7.9 7.8 7.8 8.0 8.2 8.3 8.3 8.2 8.2 8.3 8.1 8.1 8.0 8.1 8.1 7.9 7.8 7.9 7.9 7.9 7.8 7.9 7.8 7.6 7.4 7.4 7.0 7.0 6.9 6.6 6.6 6.6 6.8 6.7 6.5 7.0 7.4 7.3 7.1 6.6 6.2 5.9 5.9 6.0
8.2 8.3 8.2 8.4 8.4 8.3 8.2 8.2 8.3 8.4 8.3 8.2 8.2 8.1 8.0 7.9 7.9 7.8 7.7 7.8 7.8 7.8 7.6 7.4 7.3 7.2 6.8 6.7 6.5 6.2 6.3 6.7 6.9 6.7 6.8 7.1 7.2 7.2 6.6 6.4 6.1 5.8 5.5 5.9
8.3 8.0 8.0 8.3 8.4 8.3 8.2 8.4 8.4 8.3 8.3 8.2 8.1 8.1 7.9 7.9 7.9 7.9 7.9 8.0 7.7 7.7 7.7 7.5 7.4 7.2 7.0 6.7 6.5 6.4 6.7 7.0 6.8 6.8 7.2 7.0 7.2 6.9 6.4 6.2 5.7 5.5 5.5 5.7
8.3 7.9 8.1 8.3 8.3 8.4 8.3 8.3 8.2 8.1 8.1 8.1 8.1 8.0 8.0 8.0 7.9 7.8 7.7 7.7 7.7 7.5 7.6 7.6 7.6 7.3 6.9 6.8 7.0 6.7 6.8 6.8 7.0 7.2 7.2 7.0 6.7 6.2 6.0 5.6 5.5 5.4 5.6 5.8
8.3 8.3 8.3 8.3 8.4 8.4 8.4 8.4 8.4 8.3 8.2 8.1 8.1 8.1 8.1 8.1 8.0 8.0 8.0 7.9 7.8 7.6 7.5 7.6 7.3 7.1 7.0 6.9 7.3 7.2 7.0 7.0 7.1 7.1 7.1 7.3 6.7 6.0 5.6 5.4 5.3 5.4 5.6 5.5
8.2 8.3 8.3 8.3 8.3 8.3 8.3 8.3 8.4 8.2 8.2 8.3 8.3 8.3 8.4 8.4 8.1 7.8 7.7 7.6 7.4 7.3 7.3 7.3 7.2 7.0 7.1 6.9 7.2 7.2 7.4 7.2 7.1 7.1 7.3 7.2 6.4 6.0 5.8 5.5 5.0 4.9 5.1 5.2
8.1 8.1 8.2 8.2 8.2 8.2 8.2 8.4 8.3 8.3 8.3 8.3 8.3 8.3 8.3 8.3 8.2 7.9 7.5 7.3 7.1 7.1 7.1 7.1 7.0 7.1 7.0 7.0 7.1 7.3 7.3 7.2 7.2 7.2 7.1 6.6 6.1 5.9 6.0 6.1 5.9 5.6 5.1 5.1
8.1 8.1 8.1 8.1 8.2 8.2 8.2 8.3 8.2 8.2 8.1 8.2 8.2 8.2 8.3 8.4 8.2 7.8 7.3 6.9 6.8 6.9 6.9 7.0 7.0 7.0 7.1 7.0 7.0 7.3 7.3 7.4 7.3 7.1 6.8 6.6 6.3 6.0 5.9 6.0 5.9 5.8 5.7 5.6
8.1 8.0 8.1 8.2 8.3 8.1 8.0 8.0 8.0 8.0 8.1 8.2 8.2 8.3 8.3 8.3 8.2 7.9 7.4 6.8 6.6 6.7 6.7 6.8 6.9 6.7 6.7 6.9 6.9 6.9 7.0 7.1 7.2 7.0 6.6 6.5 6.3 6.1 6.0 6.0 6.0 6.4 6.2 5.8
Wind_Speed
11 3 7 7 9 6 4 4 7 2 5 7 5 6 4 7 11 13 13 14 12 11 11 10 10 9 8 5 3 4 4 5 7 8 8 9 9 9 9 8 8 9 11 8
2 5 1 6 5 6 7 8 8 9 5 7 5 5 7 8 9 10 10 9 8 8 7 7 7 6 6 6 7 5 7 9 6 6 9 10 9 9 8 9 7 9 8 10
5 7 2 5 13 7 5 6 5 7 8 11 6 7 6 7 7 8 6 6 6 5 3 2 2 2 5 7 7 6 5 5 9 11 11 10 9 10 9 10 11 11 11 10
2 7 6 4 7 12 10 9 9 6 7 9 10 7 8 5 7 6 5 4 2 1 2 3 2 4 4 5 5 9 7 6 5 8 11 12 15 14 14 12 13 12 12 12
3 4 2 5 8 7 9 7 3 10 11 11 8 9 5 7 6 7 6 4 3 3 2 3 5 6 5 5 6 6 7 7 6 9 11 12 14 13 13 12 11 10 10 11
3 4 8 6 4 7 7 4 7 10 11 11 8 5 4 8 7 8 7 4 5 5 4 5 7 6 6 7 6 7 9 9 7 8 12 13 15 14 12 12 11 9 10 12
4 3 5 4 6 4 8 7 13 11 9 8 6 5 4 4 2 3 4 5 6 6 7 9 8 6 7 8 9 9 8 8 8 8 11 12 10 9 12 13 13 16 15 12
4 6 10 8 4 8 5 9 8 7 7 7 5 6 5 5 5 5 7 7 8 7 8 9 8 6 8 9 12 8 8 7 7 7 6 8 12 13 12 13 14 14 13 10
8 5 3 7 4 6 6 7 6 7 5 7 7 6 6 5 5 5 7 6 6 6 7 8 8 7 9 13 11 9 7 8 8 7 6 6 10 11 9 10 10 10 11 11
4 3 5 9 7 6 6 6 7 7 7 7 5 5 3 3 2 1 2 3 1 3 5 7 7 8 9 12 12 8 8 8 6 6 6 6 6 6 9 9 10 11 11 12
1 2 6 4 7 8 7 9 8 7 6 5 5 5 5 4 4 3 3 2 3 4 5 8 9 10 9 9 10 12 9 7 9 8 7 7 7 7 9 11 14 13 14 13
4 6 4 5 7 7 8 7 8 7 4 5 7 7 5 2 1 2 4 3 5 5 7 11 11 13 12 10 11 11 10 9 9 8 8 7 6 7 11 11 12 18 23 23
4 4 6 6 7 7 8 8 8 8 6 7 4 4 2 2 1 2 4 5 5 9 11 11 12 12 12 9 7 9 10 11 7 8 7 8 7 7 8 6 9 13 12 20
5 6 3 6 6 8 7 6 10 10 8 7 5 3 2 1 1 3 5 6 8 10 13 13 13 13 10 10 12 13 12 13 8 8 9 9 8 9 8 8 8 6 12 18
3 3 5 4 5 6 6 11 9 7 5 5 4 5 3 4 4 5 8 8 10 13 14 15 16 17 13 12 12 13 11 9 7 8 8 10 9 9 8 8 8 8 6 10
6 6 7 7 8 7 10 7 8 7 6 4 4 3 5 6 5 7 10 12 10 13 16 16 16 17 16 15 16 13 12 16 14 10 9 10 9 7 8 8 8 8 9 12
4 5 4 4 7 8 8 6 7 7 6 5 3 4 3 4 5 9 12 11 13 15 15 15 17 16 15 14 15 11 10 11 14 10 12 10 9 9 8 8 9 9 11 12
7 6 7 8 9 7 6 6 6 6 4 5 4 1 3 4 6 11 11 14 14 13 16 14 13 16 18 17 16 12 11 11 10 11 11 10 10 8 8 9 9 10 9 10
7 8 7 8 8 8 7 7 6 6 5 3 1 2 3 4 5 7 10 12 15 15 13 14 20 19 19 19 16 11 11 11 11 11 11 10 8 8 8 8 9 9 9 10
7 8 10 9 7 6 7 4 5 4 1 2 2 2 5 6 7 9 8 9 10 9 14 17 18 17 17 17 18 11 10 10 10 8 7 8 8 7 7 10 9 9 10 11
9 7 10 10 8 6 5 5 6 5 4 5 4 5 6 7 6 5 7 7 8 11 15 18 15 12 12 14 12 7 5 5 7 6 6 7 6 7 7 8 9 10 10 10
10 9 7 8 6 6 5 4 4 4 6 6 6 6 3 6 5 5 6 7 7 14 11 11 11 17 14 17 6 3 1 2 3 4 4 5 6 6 7 8 8 8 9 10
6 7 7 7 7 5 4 5 6 7 7 6 6 6 4 3 3 3 6 5 6 11 9 9 15 19 18 8 4 3 1 2 2 3 4 4 5 5 6 7 7 8 8 8
5 6 6 6 5 4 4 5 6 6 5 4 4 4 3 4 5 3 3 8 10 12 9 10 13 18 15 6 5 2 1 1 2 2 3 5 4 5 6 7 7 8 9 9
5 6 5 6 6 5 5 3 5 5 5 4 2 2 2 1 2 6 5 5 7 10 9 15 14 15 8 7 6 4 2 1 1 3 3 4 5 5 4 5 7 8 8 8
6 4 5 6 6 4 4 5 4 4 3 2 2 1 3 2 2 2 3 5 4 9 7 7 8 9 8 7 6 5 3 2 3 3 4 5 5 5 4 4 6 7 7 7
5 5 4 3 2 5 5 5 5 4 3 3 2 2 1 2 4 3 3 4 3 6 6 6 6 9 8 8 7 6 5 5 5 4 4 4 4 4 4 4 5 5 6 6
Wind_Direction
230 30 339 175 144 141 155 144 190 147 175 268 49 131 110 111 90 75 64 56 52 44 33 32 35 25 21 16 213 196 192 183 186 178 176 166 165 171 170 171 181 167 160 169
265 185 25 268 213 193 175 187 207 227 218 121 134 103 72 67 85 85 84 79 67 58 49 32 25 4 349 351 353 337 214 206 186 182 178 182 173 169 174 179 169 162 170 161
197 136 102 272 234 232 208 185 167 239 245 157 146 132 127 111 100 105 103 95 84 71 59 15 319 331 332 322 321 315 317 245 204 190 188 183 176 160 167 176 173 178 180 173
168 134 202 215 247 211 218 228 211 201 150 147 132 129 138 139 127 126 124 113 101 141 271 275 267 293 278 265 262 273 274 272 254 218 208 185 183 183 180 190 193 188 184 171
193 196 73 240 194 174 173 200 168 144 136 127 133 124 145 160 155 158 169 180 214 251 266 297 302 292 278 272 262 255 255 248 241 200 201 207 200 205 195 188 191 183 175 176
181 188 193 213 177 147 101 233 179 143 150 146 141 167 198 194 184 186 188 185 212 245 262 277 273 267 283 285 276 264 261 257 235 220 210 208 205 200 204 186 188 193 192 180
181 216 283 206 162 119 166 225 157 156 161 161 158 182 179 165 126 160 182 219 233 229 232 242 251 246 268 273 273 252 261 242 245 225 222 216 221 210 210 203 201 184 186 182
176 203 243 171 155 176 173 130 145 151 165 167 136 124 147 180 205 226 239 252 252 250 250 254 242 224 245 255 259 252 257 253 232 251 262 240 226 227 219 209 197 188 174 167
189 205 208 168 120 111 123 132 150 140 130 129 138 165 181 214 237 261 268 279 277 263 274 275 267 247 256 258 259 246 234 235 227 225 235 241 254 236 211 196 197 173 179 181
124 218 147 123 118 124 131 131 131 133 145 147 155 183 202 192 193 246 249 261 250 315 300 292 293 278 259 265 264 242 234 228 225 219 235 242 237 224 213 204 195 171 184 185
103 144 102 135 138 147 130 125 122 137 147 168 152 161 165 189 221 242 273 273 277 282 290 299 309 307 303 296 282 269 238 228 222 223 224 229 225 223 215 214 201 183 190 185
199 179 129 175 167 143 130 143 152 151 179 159 165 179 184 182 235 294 314 319 333 330 316 308 302 297 299 300 301 280 263 243 227 217 225 227 220 238 233 227 223 234 214 190
152 168 158 172 170 140 146 164 179 184 176 157 105 108 85 52 298 341 325 317 309 306 301 296 295 294 294 301 300 286 275 266 235 224 215 220 217 225 239 231 220 215 213 210
99 117 131 151 178 180 170 166 108 100 107 112 121 122 136 109 7 318 311 313 314 305 299 297 296 290 297 296 299 293 286 272 244 229 227 228 219 219 222 227 217 203 197 193
236 174 178 182 176 174 129 131 124 130 138 130 126 121 81 22 9 341 322 310 303 298 296 299 299 296 300 292 285 287 288 279 243 237 231 230 230 226 219 220 212 203 193 183
216 226 228 194 203 155 143 143 137 152 149 145 104 58 49 28 344 314 306 302 300 298 301 304 297 296 293 289 288 282 275 270 263 252 240 234 226 213 217 221 212 199 192 191
207 254 239 223 166 159 176 157 149 153 145 134 134 104 43 315 299 299 299 296 293 295 299 296 293 290 289 286 282 278 271 263 258 247 241 226 219 215 214 215 211 203 201 186
196 220 206 175 157 147 148 142 138 139 140 141 137 119 239 255 291 299 299 301 298 295 302 296 297 302 295 288 283 273 261 255 249 247 231 226 220 209 206 213 210 206 195 182
172 171 154 135 142 136 137 146 150 143 142 148 145 255 260 269 286 291 295 301 309 311 312 311 305 302 301 294 283 270 258 245 239 244 222 216 211 205 206 208 203 195 181 170
122 118 119 119 124 141 145 139 129 113 156 189 239 288 280 272 293 297 297 301 299 306 314 312 310 306 301 296 286 276 254 235 226 226 201 202 203 201 203 203 192 181 173 171
120 123 139 130 139 140 146 158 148 179 203 207 203 229 242 256 267 285 304 302 299 316 315 312 317 312 312 315 308 289 243 219 212 187 189 196 193 198 196 188 180 174 170 168
134 151 147 145 151 170 195 200 169 205 216 216 232 254 272 279 273 271 272 274 302 313 321 322 319 318 318 315 317 323 32 113 136 156 176 183 184 184 181 172 165 162 162 161
152 155 152 161 170 186 173 196 205 210 215 216 229 244 234 242 250 286 304 308 315 317 322 317 318 321 323 315 316 327 21 126 155 177 180 169 155 148 149 147 143 142 142 145
164 166 172 169 166 167 215 223 219 217 201 199 197 233 240 334 317 290 313 321 319 321 319 324 325 329 332 328 318 322 346 127 153 136 126 120 125 127 130 133 138 144 144 138
175 184 171 171 192 210 216 193 129 112 121 142 201 236 336 251 267 321 328 308 312 320 323 335 334 337 340 338 332 327 342 54 109 117 125 132 131 130 129 146 155 147 135 136
183 185 195 199 207 192 176 156 150 162 157 176 264 261 303 311 300 298 280 307 312 321 321 329 343 345 345 347 352 353 353 49 90 94 98 94 94 100 112 134 130 128 130 136
193 186 193 195 197 165 150 156 153 173 172 161 204 274 307 308 292 291 309 315 320 322 319 329 344 347 350 357 1 8 15 35 47 66 73 87 94 98 97 100 106 115 125 138